TimeMST,TemperatureF,Dew PointF,Humidity,Sea Level PressureIn,VisibilityMPH,Wind Direction,Wind SpeedMPH,Gust SpeedMPH,PrecipitationIn,Events,Conditions,WindDirDegrees,DateUTC
12:55 AM,-11.0,-14.1,86,30.27,10.0,Calm,Calm,-,N/A,,Clear,0,2012-12-26 07:55:00
1:55 AM,-11.0,-16.1,78,30.25,10.0,Calm,Calm,-,N/A,,Clear,0,2012-12-26 08:55:00
2:55 AM,-8.0,-11.0,86,30.22,10.0,Calm,Calm,-,N/A,,Clear,0,2012-12-26 09:55:00
3:55 AM,-2.9,-6.0,87,30.17,10.0,SE,3.5,-,N/A,,Clear,140,2012-12-26 10:55:00
5:55 AM,3.9,1.9,91,30.15,10.0,SSE,6.9,-,N/A,,Clear,160,2012-12-26 12:55:00
6:55 AM,5.0,3.0,92,30.17,10.0,SE,8.1,-,N/A,,Clear,140,2012-12-26 13:55:00
7:55 AM,8.1,5.0,87,30.16,10.0,SSE,8.1,-,N/A,,Clear,160,2012-12-26 14:55:00
8:51 AM,8.6,6.8,92,29.84,10.0,SE,10.4,-,N/A,,Mostly Cloudy,140,2012-12-26 15:51:00
8:55 AM,9.0,7.0,92,30.13,10.0,SSE,9.2,-,N/A,,Mostly Cloudy,150,2012-12-26 15:55:00
9:22 AM,10.4,8.6,92,29.83,10.0,SSE,12.7,-,N/A,,Mostly Cloudy,160,2012-12-26 16:22:00
9:55 AM,10.9,9.0,92,30.11,10.0,SSE,13.8,-,N/A,,Mostly Cloudy,150,2012-12-26 16:55:00
10:55 AM,10.9,9.0,92,30.06,10.0,South,10.4,-,0.00,Snow,Light Snow,170,2012-12-26 17:55:00
11:55 AM,12.9,10.0,88,29.99,10.0,South,9.2,-,0.00,,Mostly Cloudy,170,2012-12-26 18:55:00
12:38 PM,12.2,8.6,85,29.70,10.0,SSE,12.7,-,N/A,,Scattered Clouds,150,2012-12-26 19:38:00
12:55 PM,12.9,10.0,88,29.95,10.0,SSE,13.8,-,N/A,,Clear,150,2012-12-26 19:55:00
1:55 PM,14.0,10.0,84,29.91,10.0,SSE,11.5,-,N/A,,Clear,160,2012-12-26 20:55:00
2:20 PM,12.2,10.4,92,29.66,10.0,SE,11.5,-,N/A,,Mostly Cloudy,140,2012-12-26 21:20:00
2:43 PM,12.2,8.6,85,29.65,10.0,SSE,11.5,-,N/A,,Scattered Clouds,150,2012-12-26 21:43:00
2:55 PM,12.9,9.0,84,29.90,10.0,SE,9.2,-,N/A,,Mostly Cloudy,130,2012-12-26 21:55:00
3:55 PM,10.9,8.1,88,29.87,10.0,SE,12.7,-,N/A,,Partly Cloudy,140,2012-12-26 22:55:00
4:31 PM,8.6,6.8,92,29.64,10.0,SE,8.1,-,N/A,,Scattered Clouds,140,2012-12-26 23:31:00
4:55 PM,5.0,3.9,95,29.87,10.0,SE,6.9,-,N/A,,Scattered Clouds,140,2012-12-26 23:55:00
5:09 PM,8.6,6.8,92,29.64,10.0,SSE,8.1,-,N/A,,Mostly Cloudy,150,2012-12-27 00:09:00
5:55 PM,10.0,9.0,95,29.85,10.0,SSE,12.7,-,N/A,,Overcast,160,2012-12-27 00:55:00
6:55 PM,10.9,10.9,100,29.83,10.0,South,6.9,-,N/A,,Overcast,180,2012-12-27 01:55:00
7:55 PM,10.9,10.0,96,29.82,10.0,SW,4.6,-,N/A,,Overcast,220,2012-12-27 02:55:00
8:55 PM,10.9,10.0,96,29.79,10.0,SSE,5.8,-,N/A,,Overcast,150,2012-12-27 03:55:00
9:55 PM,10.0,10.0,100,29.78,10.0,Calm,Calm,-,N/A,,Overcast,0,2012-12-27 04:55:00
10:55 PM,8.1,6.1,92,29.78,10.0,Calm,Calm,-,N/A,,Overcast,0,2012-12-27 05:55:00
11:55 PM,1.0,-2.0,87,29.80,10.0,West,6.9,-,N/A,,Mostly Cloudy,280,2012-12-27 06:55:00